TimeEST,TemperatureF,Dew PointF,Humidity,Sea Level PressureIn,VisibilityMPH,Wind Direction,Wind SpeedMPH,Gust SpeedMPH,PrecipitationIn,Events,Conditions,WindDirDegrees,DateUTC
12:15 AM,48.2,41.2,77,29.98,10.0,SSW,5.8,-,N/A,,Overcast,210,2013-01-17 05:15:00
12:35 AM,48.4,41.0,76,29.99,10.0,SSW,9.2,-,N/A,,Overcast,210,2013-01-17 05:35:00
12:55 AM,48.4,41.0,76,29.99,10.0,South,8.1,-,N/A,,Overcast,190,2013-01-17 05:55:00
1:15 AM,48.2,40.8,76,29.99,10.0,SSW,8.1,-,N/A,,Overcast,200,2013-01-17 06:15:00
1:35 AM,48.2,40.5,75,29.99,10.0,SSW,6.9,-,N/A,,Overcast,210,2013-01-17 06:35:00
1:55 AM,48.2,40.5,75,30.01,10.0,WSW,9.2,-,N/A,,Overcast,240,2013-01-17 06:55:00
2:15 AM,48.2,40.3,74,30.00,10.0,WSW,5.8,-,N/A,,Overcast,250,2013-01-17 07:15:00
2:35 AM,48.0,40.3,75,29.99,10.0,SSE,3.5,-,N/A,,Overcast,160,2013-01-17 07:35:00
2:55 AM,46.4,40.6,80,30.01,10.0,SSW,4.6,-,N/A,,Overcast,200,2013-01-17 07:55:00
3:15 AM,47.5,40.5,77,30.00,10.0,South,8.1,-,N/A,,Overcast,190,2013-01-17 08:15:00
3:35 AM,47.5,40.3,76,30.01,10.0,SW,4.6,-,N/A,,Overcast,230,2013-01-17 08:35:00
3:55 AM,47.3,40.3,77,30.01,10.0,South,4.6,-,N/A,,Overcast,190,2013-01-17 08:55:00
4:15 AM,47.1,40.1,77,30.03,10.0,Calm,Calm,-,N/A,,Overcast,0,2013-01-17 09:15:00
4:35 AM,47.3,39.7,75,30.03,10.0,Calm,Calm,-,N/A,,Overcast,0,2013-01-17 09:35:00
4:55 AM,47.7,39.2,72,30.03,10.0,South,4.6,-,N/A,,Light Drizzle,180,2013-01-17 09:55:00
5:15 AM,46.8,39.4,75,30.02,10.0,Calm,Calm,-,N/A,Rain,Rain,0,2013-01-17 10:15:00
5:35 AM,46.4,39.4,77,30.01,10.0,South,6.9,-,N/A,,Light Drizzle,190,2013-01-17 10:35:00
5:55 AM,46.4,39.2,76,30.02,10.0,WSW,3.5,-,N/A,Rain,Light Rain,240,2013-01-17 10:55:00
6:15 AM,45.3,39.7,81,30.02,10.0,East,3.5,-,N/A,,Overcast,90,2013-01-17 11:15:00
6:35 AM,45.5,39.9,81,30.01,10.0,Calm,Calm,-,N/A,,Overcast,0,2013-01-17 11:35:00
7:15 AM,44.2,40.3,86,30.03,10.0,Calm,Calm,-,N/A,,Overcast,0,2013-01-17 12:15:00
7:35 AM,44.8,40.3,84,30.06,10.0,WSW,3.5,-,N/A,,Overcast,240,2013-01-17 12:35:00
7:55 AM,44.2,40.3,86,30.05,10.0,Calm,Calm,-,N/A,,Overcast,0,2013-01-17 12:55:00
8:15 AM,44.8,40.3,84,30.06,10.0,Calm,Calm,-,N/A,,Overcast,0,2013-01-17 13:15:00
8:35 AM,45.3,40.3,83,30.07,10.0,Calm,Calm,-,N/A,,Mostly Cloudy,0,2013-01-17 13:35:00
8:55 AM,45.7,40.1,81,30.08,10.0,Calm,Calm,-,N/A,,Overcast,0,2013-01-17 13:55:00
9:15 AM,45.5,41.5,86,30.11,10.0,Calm,Calm,-,N/A,Rain,Light Rain,0,2013-01-17 14:15:00
9:35 AM,45.3,32.5,61,30.10,10.0,NNE,5.8,-,N/A,,Overcast,20,2013-01-17 14:35:00
9:55 AM,45.1,28.9,53,30.10,10.0,NNE,5.8,-,N/A,,Overcast,20,2013-01-17 14:55:00
10:15 AM,45.1,29.3,54,30.11,10.0,North,4.6,-,N/A,,Overcast,360,2013-01-17 15:15:00
10:35 AM,44.6,29.3,55,30.09,10.0,NE,5.8,-,N/A,,Overcast,40,2013-01-17 15:35:00
10:55 AM,44.8,28.9,54,30.09,10.0,NNE,6.9,-,N/A,,Overcast,20,2013-01-17 15:55:00
11:15 AM,44.6,30.6,58,30.07,10.0,NNE,5.8,-,N/A,,Overcast,20,2013-01-17 16:15:00
11:35 AM,44.8,29.7,55,30.06,10.0,North,3.5,-,N/A,,Overcast,360,2013-01-17 16:35:00
11:55 AM,45.1,29.1,54,30.08,10.0,Calm,Calm,-,N/A,,Overcast,0,2013-01-17 16:55:00
12:15 PM,45.0,29.8,55,30.06,10.0,Calm,Calm,-,N/A,,Overcast,0,2013-01-17 17:15:00
12:35 PM,44.6,30.4,57,30.06,10.0,North,3.5,-,N/A,,Overcast,10,2013-01-17 17:35:00
12:55 PM,44.6,26.1,48,30.06,10.0,NNE,4.6,-,N/A,,Overcast,30,2013-01-17 17:55:00
1:15 PM,44.2,26.1,49,30.06,10.0,North,6.9,-,N/A,,Overcast,350,2013-01-17 18:15:00
1:55 PM,43.2,27.7,54,30.04,10.0,NE,8.1,-,N/A,,Light Drizzle,50,2013-01-17 18:55:00
2:15 PM,41.0,31.1,68,30.04,10.0,East,4.6,-,N/A,Rain,Light Rain,100,2013-01-17 19:15:00
2:35 PM,40.1,31.8,72,30.05,10.0,East,5.8,-,N/A,Rain,Rain,100,2013-01-17 19:35:00
2:55 PM,40.1,32.9,75,30.05,10.0,East,3.5,-,N/A,,Overcast,80,2013-01-17 19:55:00
3:15 PM,40.5,32.5,73,30.08,10.0,Calm,Calm,-,N/A,,Overcast,0,2013-01-17 20:15:00
3:35 PM,39.9,33.4,78,30.07,10.0,South,5.8,-,N/A,,Overcast,170,2013-01-17 20:35:00
3:55 PM,39.6,33.1,78,30.08,10.0,Calm,Calm,-,N/A,,Overcast,0,2013-01-17 20:55:00
4:15 PM,39.2,33.4,80,30.08,10.0,South,3.5,-,N/A,,Overcast,190,2013-01-17 21:15:00
4:35 PM,38.7,33.8,83,30.09,10.0,SSW,6.9,-,N/A,Rain,Light Rain,210,2013-01-17 21:35:00
4:55 PM,37.4,33.8,87,30.10,7.0,SW,8.1,-,N/A,Rain,Rain,230,2013-01-17 21:55:00
5:15 PM,36.5,33.8,90,30.09,10.0,SW,3.5,-,0.01,Rain,Light Rain,220,2013-01-17 22:15:00
5:35 PM,36.1,33.8,91,30.09,10.0,SW,4.6,-,0.01,,Overcast,220,2013-01-17 22:35:00
5:55 PM,36.0,33.8,92,30.11,10.0,Calm,Calm,-,0.01,,Overcast,0,2013-01-17 22:55:00
6:35 PM,36.1,34.0,92,30.10,10.0,SSE,3.5,-,N/A,,Overcast,160,2013-01-17 23:35:00
7:15 PM,36.5,34.5,93,30.09,7.0,NNW,4.6,-,N/A,,Overcast,330,2013-01-18 00:15:00
7:55 PM,36.7,34.3,91,30.10,7.0,Calm,Calm,-,N/A,,Overcast,0,2013-01-18 00:55:00
8:55 PM,36.1,34.0,92,30.09,4.0,Calm,Calm,-,N/A,,Overcast,0,2013-01-18 01:55:00
9:15 PM,36.5,34.5,93,30.07,7.0,NNE,3.5,-,N/A,,Overcast,30,2013-01-18 02:15:00
9:35 PM,36.7,34.7,93,30.07,10.0,Calm,Calm,-,N/A,,Overcast,0,2013-01-18 02:35:00
9:55 PM,36.9,34.0,89,30.09,10.0,Calm,Calm,-,N/A,,Overcast,0,2013-01-18 02:55:00
10:15 PM,36.7,33.8,89,30.10,10.0,Calm,Calm,-,N/A,,Mostly Cloudy,0,2013-01-18 03:15:00
10:35 PM,36.9,33.8,89,30.08,10.0,NNE,4.6,-,N/A,,Scattered Clouds,20,2013-01-18 03:35:00
10:55 PM,36.7,33.1,87,30.06,10.0,NE,6.9,-,N/A,,Scattered Clouds,40,2013-01-18 03:55:00